Hourly Weather Berezovka (Zabolot)

Today, 3 August, Monday

Time Temperature Precipitation Wind Pressure Humidity
00:00 +15°C° 0 mm 2 mps 746 mmHg 80%
01:00 +15°C° 0 mm 2 mps 746 mmHg 82%
02:00 +14°C° 0 mm 2 mps 746 mmHg 86%
03:00 +14°C° 0 mm 2 mps 746 mmHg 88%
04:00 +14°C° 0 mm 2 mps 746 mmHg 89%
05:00 +14°C° 0 mm 2 mps 746 mmHg 91%
06:00 +16°C° 0 mm 2 mps 746 mmHg 86%
07:00 +17°C° 0 mm 3 mps 746 mmHg 81%
08:00 +19°C° 0 mm 3 mps 746 mmHg 77%
09:00 +21°C° 0 mm 3 mps 746 mmHg 71%
10:00 +22°C° 0 mm 4 mps 746 mmHg 66%
11:00 +25°C° 0 mm 4 mps 745 mmHg 60%
12:00 +25°C° 0 mm 4 mps 745 mmHg 58%
13:00 +26°C° 0 mm 4 mps 745 mmHg 56%
14:00 +26°C° 0 mm 4 mps 745 mmHg 54%
15:00 +26°C° 0.1 mm 4 mps 745 mmHg 56%
16:00 +26°C° 0.1 mm 4 mps 745 mmHg 59%
17:00 +26°C° 0.1 mm 4 mps 744 mmHg 61%
18:00 +23°C° 0.1 mm 4 mps 744 mmHg 67%
19:00 +21°C° 0.1 mm 3 mps 744 mmHg 73%
20:00 +20°C° 0.1 mm 3 mps 744 mmHg 80%
21:00 +19°C° 0 mm 3 mps 744 mmHg 80%
22:00 +18°C° 0 mm 4 mps 744 mmHg 81%
23:00 +18°C° 0 mm 4 mps 744 mmHg 82%

Tomorrow, 4 August, Tuesday

Time Temperature Precipitation Wind Pressure Humidity
00:00 +18°C° 0 mm 4 mps 744 mmHg 83%
01:00 +17°C° 0 mm 4 mps 744 mmHg 83%
02:00 +17°C° 0 mm 4 mps 744 mmHg 84%
03:00 +17°C° 0 mm 4 mps 743 mmHg 86%
04:00 +15°C° 0 mm 4 mps 743 mmHg 88%
05:00 +15°C° 0 mm 4 mps 743 mmHg 90%
06:00 +15°C° 0 mm 4 mps 743 mmHg 88%
07:00 +17°C° 0 mm 4 mps 743 mmHg 85%
08:00 +18°C° 0 mm 4 mps 743 mmHg 83%
09:00 +19°C° 0 mm 4 mps 743 mmHg 82%
10:00 +20°C° 0 mm 4 mps 743 mmHg 80%
11:00 +20°C° 0 mm 4 mps 743 mmHg 79%
12:00 +20°C° 0.3 mm 4 mps 743 mmHg 80%
13:00 +20°C° 0.3 mm 3 mps 743 mmHg 82%
14:00 +20°C° 0.3 mm 2 mps 743 mmHg 83%
15:00 +20°C° 0 mm 2 mps 743 mmHg 84%
16:00 +21°C° 0 mm 2 mps 743 mmHg 85%
17:00 +21°C° 0 mm 2 mps 743 mmHg 86%
18:00 +20°C° 0.6 mm 2 mps 743 mmHg 87%
19:00 +20°C° 0.6 mm 2 mps 743 mmHg 89%
20:00 +20°C° 0.6 mm 2 mps 744 mmHg 91%
21:00 +19°C° 0.4 mm 2 mps 744 mmHg 93%
22:00 +18°C° 0.4 mm 2 mps 744 mmHg 95%
23:00 +17°C° 0.4 mm 2 mps 745 mmHg 97%

Day after tomorrow, 5 August, Wednesday

Time Temperature Precipitation Wind Pressure Humidity
00:00 +17°C° 0 mm 2 mps 745 mmHg 97%
01:00 +17°C° 0 mm 2 mps 746 mmHg 97%
02:00 +17°C° 0 mm 3 mps 746 mmHg 97%
03:00 +17°C° 0 mm 3 mps 747 mmHg 96%
04:00 +17°C° 0 mm 3 mps 747 mmHg 96%
05:00 +17°C° 0 mm 3 mps 747 mmHg 95%
06:00 +17°C° 0 mm 3 mps 748 mmHg 94%
07:00 +17°C° 0 mm 3 mps 748 mmHg 92%
08:00 +18°C° 0 mm 3 mps 749 mmHg 90%
09:00 +19°C° 0 mm 3 mps 749 mmHg 84%
10:00 +20°C° 0 mm 3 mps 750 mmHg 78%
11:00 +21°C° 0 mm 3 mps 750 mmHg 72%
12:00 +22°C° 0 mm 3 mps 750 mmHg 68%
13:00 +24°C° 0 mm 3 mps 750 mmHg 63%
14:00 +25°C° 0 mm 3 mps 751 mmHg 59%
15:00 +25°C° 0 mm 2 mps 751 mmHg 60%
16:00 +25°C° 0 mm 2 mps 751 mmHg 61%
17:00 +25°C° 0 mm 2 mps 751 mmHg 62%
18:00 +23°C° 0 mm 2 mps 751 mmHg 67%
19:00 +21°C° 0 mm 2 mps 752 mmHg 72%
20:00 +20°C° 0 mm 2 mps 752 mmHg 76%
21:00 +18°C° 0 mm 2 mps 752 mmHg 79%
22:00 +17°C° 0 mm 2 mps 752 mmHg 81%
23:00 +16°C° 0 mm 3 mps 753 mmHg 84%

6 August, Thursday

Time Temperature Precipitation Wind Pressure Humidity
00:00 +16°C° 0 mm 2 mps 753 mmHg 85%
01:00 +15°C° 0 mm 2 mps 753 mmHg 86%
02:00 +15°C° 0 mm 2 mps 753 mmHg 87%
03:00 +14°C° 0 mm 2 mps 753 mmHg 88%
04:00 +14°C° 0 mm 2 mps 754 mmHg 89%
05:00 +13°C° 0 mm 2 mps 754 mmHg 90%
06:00 +15°C° 0 mm 2 mps 754 mmHg 84%
07:00 +17°C° 0 mm 3 mps 755 mmHg 78%
08:00 +18°C° 0 mm 3 mps 755 mmHg 73%
09:00 +20°C° 0 mm 3 mps 755 mmHg 67%
10:00 +22°C° 0 mm 3 mps 755 mmHg 61%
11:00 +24°C° 0 mm 3 mps 756 mmHg 55%
12:00 +25°C° 0 mm 3 mps 755 mmHg 53%
13:00 +26°C° 0 mm 3 mps 755 mmHg 51%
14:00 +26°C° 0 mm 3 mps 755 mmHg 49%
15:00 +26°C° 0 mm 3 mps 755 mmHg 51%
16:00 +26°C° 0 mm 3 mps 755 mmHg 52%
17:00 +25°C° 0 mm 3 mps 755 mmHg 53%
18:00 +22°C° 0 mm 3 mps 755 mmHg 60%
19:00 +20°C° 0 mm 3 mps 755 mmHg 66%
20:00 +18°C° 0 mm 3 mps 755 mmHg 73%
21:00 +18°C° 0 mm 3 mps 756 mmHg 75%
22:00 +17°C° 0 mm 3 mps 756 mmHg 77%
23:00 +16°C° 0 mm 3 mps 756 mmHg 79%

7 August, Friday

Time Temperature Precipitation Wind Pressure Humidity
00:00 +15°C° 0 mm 2 mps 756 mmHg 81%
01:00 +15°C° 0 mm 2 mps 756 mmHg 82%
02:00 +15°C° 0 mm 2 mps 756 mmHg 84%
03:00 +15°C° 0 mm 2 mps 756 mmHg 85%
04:00 +14°C° 0 mm 2 mps 757 mmHg 86%
05:00 +14°C° 0 mm 2 mps 757 mmHg 87%
06:00 +16°C° 0 mm 2 mps 757 mmHg 82%
07:00 +18°C° 0 mm 2 mps 757 mmHg 77%
08:00 +19°C° 0 mm 3 mps 757 mmHg 71%
09:00 +21°C° 0 mm 3 mps 757 mmHg 66%
10:00 +24°C° 0 mm 3 mps 757 mmHg 61%
11:00 +25°C° 0 mm 3 mps 757 mmHg 56%
12:00 +26°C° 0 mm 3 mps 757 mmHg 54%
13:00 +27°C° 0 mm 3 mps 757 mmHg 53%
14:00 +27°C° 0 mm 3 mps 757 mmHg 51%
15:00 +27°C° 0 mm 3 mps 756 mmHg 53%
16:00 +27°C° 0 mm 3 mps 756 mmHg 55%
17:00 +26°C° 0 mm 3 mps 756 mmHg 57%
18:00 +25°C° 0 mm 2 mps 756 mmHg 64%
19:00 +23°C° 0 mm 2 mps 756 mmHg 71%
20:00 +20°C° 0 mm 2 mps 756 mmHg 78%
21:00 +19°C° 0 mm 2 mps 756 mmHg 82%
22:00 +18°C° 0 mm 2 mps 756 mmHg 86%
23:00 +18°C° 0 mm 2 mps 756 mmHg 90%

8 August, Saturday

Time Temperature Precipitation Wind Pressure Humidity
00:00 +17°C° 0 mm 2 mps 756 mmHg 90%
01:00 +18°C° 0 mm 1 mps 756 mmHg 90%
02:00 +16°C° 0 mm 1 mps 756 mmHg 91%
03:00 +16°C° 0 mm 1 mps 755 mmHg 91%
04:00 +16°C° 0 mm 1 mps 755 mmHg 91%
05:00 +16°C° 0 mm 1 mps 755 mmHg 91%
06:00 +17°C° 0 mm 2 mps 755 mmHg 86%
07:00 +19°C° 0 mm 2 mps 755 mmHg 80%
08:00 +20°C° 0 mm 2 mps 755 mmHg 75%
09:00 +23°C° 0 mm 2 mps 755 mmHg 70%
10:00 +24°C° 0 mm 2 mps 755 mmHg 64%
11:00 +26°C° 0 mm 2 mps 755 mmHg 59%
12:00 +26°C° 0.2 mm 2 mps 754 mmHg 58%
13:00 +26°C° 0.2 mm 1 mps 754 mmHg 58%
14:00 +27°C° 0.2 mm 1 mps 753 mmHg 58%
15:00 +26°C° 0.5 mm 1 mps 753 mmHg 59%
16:00 +26°C° 0.5 mm 1 mps 753 mmHg 61%
17:00 +26°C° 0.5 mm 1 mps 752 mmHg 63%
18:00 +24°C° 0.2 mm 1 mps 752 mmHg 69%
19:00 +23°C° 0.2 mm 1 mps 752 mmHg 76%
20:00 +21°C° 0.2 mm 1 mps 752 mmHg 83%
21:00 +20°C° 0.3 mm 1 mps 752 mmHg 85%
22:00 +20°C° 0.3 mm 1 mps 752 mmHg 87%
23:00 +17°C° 0.3 mm 0 mps 752 mmHg 89%
Show more